Вернуться в каталог

STARLINK-32347

АктивенСвязьVLEO
NORAD 61010·PAYLOAD·🇺🇸 United States

Запущен Sep 5, 2024 с Cape Canaveral Space Force Station

Loading…

Ближайшие Пролёты (ближайшие 24 часа)

TLE

СвежийSource: CelesTrak SupGP

Эпоха: Sep 15, 2026, 02:41 UTC

1 61010C 24158W   26258.11229167 -.00027979  00000+0 -82645-3 0  2581
2 61010  53.1573 262.7144 0001241  89.4600 303.7193 15.34411712    11

Отслеживайте STARLINK-32347 в реальном времени с AllMySat

Download on the App Store